TimeEDT,TemperatureF,Dew PointF,Humidity,Sea Level PressureIn,VisibilityMPH,Wind Direction,Wind SpeedMPH,Gust SpeedMPH,PrecipitationIn,Events,Conditions,WindDirDegrees,DateUTC
12:51 AM,34.0,21.0,59,30.53,10.0,NNW,3.5,-,N/A,,Clear,330,2013-03-27 04:51:00
1:51 AM,32.9,21.0,62,30.53,10.0,NNW,5.8,-,N/A,,Clear,330,2013-03-27 05:51:00
2:51 AM,32.9,22.1,65,30.52,10.0,Calm,Calm,-,N/A,,Clear,0,2013-03-27 06:51:00
3:51 AM,31.1,21.0,66,30.52,10.0,Calm,Calm,-,N/A,,Clear,0,2013-03-27 07:51:00
4:51 AM,29.1,23.0,78,30.52,10.0,Calm,Calm,-,N/A,,Clear,0,2013-03-27 08:51:00
5:51 AM,27.1,23.0,84,30.53,10.0,Calm,Calm,-,N/A,,Clear,0,2013-03-27 09:51:00
6:51 AM,28.0,23.0,81,30.54,10.0,Calm,Calm,-,N/A,,Clear,0,2013-03-27 10:51:00
7:51 AM,34.9,22.1,60,30.55,10.0,NW,5.8,-,N/A,,Clear,310,2013-03-27 11:51:00
8:51 AM,41.0,20.1,43,30.55,10.0,NW,8.1,-,N/A,,Clear,310,2013-03-27 12:51:00
9:51 AM,45.9,22.1,39,30.53,10.0,NW,13.8,18.4,N/A,,Clear,320,2013-03-27 13:51:00
10:51 AM,47.8,22.1,36,30.53,10.0,NW,12.7,21.9,N/A,,Partly Cloudy,320,2013-03-27 14:51:00
12:51 PM,52.0,22.1,31,30.50,10.0,NNW,12.7,23.0,N/A,,Scattered Clouds,340,2013-03-27 16:51:00
1:51 PM,52.9,23.0,31,30.50,10.0,NW,16.1,26.5,N/A,,Scattered Clouds,320,2013-03-27 17:51:00
2:51 PM,54.0,23.0,30,30.50,10.0,NNW,11.5,21.9,N/A,,Mostly Cloudy,340,2013-03-27 18:51:00
3:51 PM,50.9,22.1,32,30.50,10.0,NW,18.4,25.3,N/A,,Mostly Cloudy,320,2013-03-27 19:51:00
4:51 PM,50.0,22.1,33,30.52,10.0,NNW,11.5,20.7,N/A,,Scattered Clouds,340,2013-03-27 20:51:00
6:51 PM,47.8,23.0,38,30.56,10.0,NNW,8.1,24.2,N/A,,Mostly Cloudy,340,2013-03-27 22:51:00
7:51 PM,45.9,25.2,44,30.59,10.0,North,6.9,-,N/A,,Partly Cloudy,360,2013-03-27 23:51:00
8:51 PM,43.9,27.1,52,30.61,10.0,North,10.4,-,N/A,,Clear,350,2013-03-28 00:51:00
9:51 PM,43.0,28.0,56,30.62,10.0,North,13.8,-,N/A,,Clear,350,2013-03-28 01:51:00
10:51 PM,41.0,30.0,65,30.63,10.0,North,11.5,-,N/A,,Partly Cloudy,350,2013-03-28 02:51:00
11:51 PM,39.9,32.0,73,30.63,10.0,NNW,9.2,-,N/A,,Overcast,340,2013-03-28 03:51:00